AFL740 UGTB-URML

Flight info

Callsign AFL740
Flight time 0h 39m
Altitude 270
Route KUFAN B477 LARKA
Aircraft A320/M-VGDW/C

Departure

Time 2026-04-14 12:34
Airport Tbilisi International Airport (UGTB)

Arrival

Time 2026-04-14 13:13
Airport Makhachkala Uytash International Airport (URML)
Time Latitude Longitude Altitude Speed Heading
2026-04-14 12:00 41.67185 44.95877 1556 ft 0 kts 133°
2026-04-14 12:04 41.67184 44.95877 1556 ft 0 kts 134°
2026-04-14 12:27 41.67177 44.95887 1555 ft 4 kts 135°
2026-04-14 12:28 41.67150 44.95924 1555 ft 2 kts 135°
2026-04-14 12:28 41.67141 44.95937 1554 ft 4 kts 131°
2026-04-14 12:28 41.67113 44.95980 1553 ft 8 kts 133°
2026-04-14 12:28 41.67063 44.95989 1552 ft 8 kts 213°
2026-04-14 12:29 41.67017 44.95970 1552 ft 7 kts 167°
2026-04-14 12:29 41.66961 44.96033 1550 ft 14 kts 126°
2026-04-14 12:29 41.66908 44.96150 1541 ft 15 kts 129°
2026-04-14 12:29 41.66838 44.96250 1539 ft 15 kts 134°
2026-04-14 12:30 41.66767 44.96349 1536 ft 15 kts 135°
2026-04-14 12:30 41.66685 44.96422 1539 ft 14 kts 178°
2026-04-14 12:30 41.66589 44.96397 1531 ft 14 kts 193°
2026-04-14 12:30 41.66497 44.96368 1538 ft 13 kts 193°
2026-04-14 12:31 41.66408 44.96341 1537 ft 13 kts 193°
2026-04-14 12:31 41.66325 44.96315 1534 ft 12 kts 193°
2026-04-14 12:31 41.66241 44.96297 1528 ft 12 kts 176°
2026-04-14 12:31 41.66159 44.96331 1529 ft 13 kts 151°
2026-04-14 12:32 41.66084 44.96413 1527 ft 15 kts 136°
2026-04-14 12:32 41.66004 44.96515 1526 ft 16 kts 136°
2026-04-14 12:32 41.65918 44.96597 1527 ft 15 kts 169°
2026-04-14 12:32 41.65856 44.96553 1522 ft 8 kts 239°
2026-04-14 12:33 41.65844 44.96477 1525 ft 9 kts 261°
2026-04-14 12:33 41.65877 44.96419 1524 ft 8 kts 317°
2026-04-14 12:33 41.65928 44.96355 1524 ft 18 kts 316°
2026-04-14 12:33 41.66197 44.96015 1536 ft 86 kts 316°
2026-04-14 12:34 41.66779 44.95276 1563 ft 138 kts 315°
2026-04-14 12:34 41.67469 44.94378 2235 ft 137 kts 318°
2026-04-14 12:34 41.68166 44.93546 3018 ft 136 kts 318°
2026-04-14 12:34 41.68862 44.92694 3721 ft 136 kts 316°
2026-04-14 12:35 41.69556 44.91837 4350 ft 136 kts 315°
2026-04-14 12:35 41.70261 44.90965 4869 ft 144 kts 315°
2026-04-14 12:35 41.71049 44.89986 5148 ft 166 kts 315°
2026-04-14 12:35 41.71950 44.88862 5406 ft 190 kts 315°
2026-04-14 12:36 41.72980 44.87578 5773 ft 214 kts 315°
2026-04-14 12:36 41.74135 44.86142 6207 ft 238 kts 316°
2026-04-14 12:36 41.75423 44.84638 6862 ft 253 kts 325°
2026-04-14 12:36 41.77136 44.83996 7669 ft 268 kts 359°
2026-04-14 12:37 41.78931 44.84819 8518 ft 285 kts 30°
2026-04-14 12:37 41.80213 44.86916 9330 ft 302 kts 60°
2026-04-14 12:37 41.80824 44.89645 10189 ft 310 kts 79°
2026-04-14 12:37 41.81183 44.92601 10542 ft 334 kts 79°
2026-04-14 12:38 41.81931 44.99149 11283 ft 370 kts 81°
2026-04-14 12:38 41.82308 45.02572 12063 ft 373 kts 81°
2026-04-14 12:38 41.82687 45.06040 12756 ft 379 kts 81°
2026-04-14 12:39 41.83069 45.09552 13515 ft 382 kts 81°
2026-04-14 12:39 41.83454 45.13080 14254 ft 385 kts 81°
2026-04-14 12:39 41.83845 45.16658 14842 ft 390 kts 81°
2026-04-14 12:39 41.84238 45.20268 15605 ft 391 kts 81°
2026-04-14 12:40 41.84631 45.23883 16323 ft 392 kts 82°
2026-04-14 12:40 41.85021 45.27501 17098 ft 391 kts 82°
2026-04-14 12:40 41.85403 45.31056 17882 ft 390 kts 83°
2026-04-14 12:40 41.85791 45.34659 18537 ft 392 kts 83°
2026-04-14 12:41 41.86182 45.38286 19106 ft 394 kts 82°
2026-04-14 12:41 41.86575 45.41928 19668 ft 396 kts 82°
2026-04-14 12:41 41.86967 45.45597 20184 ft 399 kts 82°
2026-04-14 12:41 41.87360 45.49285 20725 ft 401 kts 82°
2026-04-14 12:42 41.87756 45.53000 21244 ft 404 kts 83°
2026-04-14 12:42 41.88151 45.56745 21746 ft 407 kts 82°
2026-04-14 12:42 41.88547 45.60510 22263 ft 409 kts 82°
2026-04-14 12:42 41.88944 45.64289 22853 ft 408 kts 83°
2026-04-14 12:43 41.89338 45.68059 23442 ft 408 kts 83°
2026-04-14 12:43 41.89733 45.71850 23909 ft 411 kts 83°
2026-04-14 12:43 41.90133 45.75671 24241 ft 415 kts 83°
2026-04-14 12:43 41.90539 45.79527 24525 ft 420 kts 83°
2026-04-14 12:44 41.90948 45.83435 24794 ft 425 kts 83°
2026-04-14 12:44 41.91356 45.87389 25099 ft 430 kts 82°
2026-04-14 12:44 41.91764 45.91390 25346 ft 436 kts 82°
2026-04-14 12:45 41.92595 45.99554 25848 ft 447 kts 82°
2026-04-14 12:45 41.93018 46.03716 26136 ft 451 kts 82°
2026-04-14 12:45 41.93440 46.07893 26527 ft 452 kts 82°
2026-04-14 12:45 41.93862 46.12097 26873 ft 456 kts 82°
2026-04-14 12:46 41.94284 46.16326 27150 ft 459 kts 82°
2026-04-14 12:46 41.94707 46.20527 27235 ft 461 kts 81°
2026-04-14 12:46 41.95389 46.24731 27237 ft 461 kts 72°
2026-04-14 12:46 41.96559 46.28793 27241 ft 460 kts 63°
2026-04-14 12:47 41.98152 46.32505 27251 ft 458 kts 54°
2026-04-14 12:47 42.00124 46.35853 27258 ft 456 kts 48°
2026-04-14 12:47 42.02152 46.39042 27249 ft 453 kts 49°
2026-04-14 12:47 42.04221 46.42308 27255 ft 452 kts 49°
2026-04-14 12:48 42.06251 46.45531 27252 ft 452 kts 49°
2026-04-14 12:48 42.08253 46.48719 27254 ft 452 kts 49°
2026-04-14 12:48 42.10278 46.51949 27247 ft 451 kts 49°
2026-04-14 12:48 42.12304 46.55180 27253 ft 451 kts 49°
2026-04-14 12:49 42.14330 46.58407 27231 ft 451 kts 49°
2026-04-14 12:49 42.16355 46.61628 27227 ft 451 kts 49°
2026-04-14 12:49 42.18383 46.64857 27233 ft 451 kts 49°
2026-04-14 12:49 42.20409 46.68087 27227 ft 450 kts 49°
2026-04-14 12:50 42.22431 46.71314 27228 ft 450 kts 49°
2026-04-14 12:50 42.26468 46.77788 27219 ft 450 kts 49°
2026-04-14 12:50 42.28482 46.81027 27217 ft 450 kts 50°
2026-04-14 12:51 42.30498 46.84265 27212 ft 450 kts 50°
2026-04-14 12:51 42.32514 46.87503 27213 ft 450 kts 50°
2026-04-14 12:51 42.33847 46.89648 27208 ft 450 kts 50°
2026-04-14 12:51 42.35854 46.92887 27213 ft 450 kts 50°
2026-04-14 12:52 42.38515 46.97186 27211 ft 449 kts 50°
2026-04-14 12:52 42.40523 47.00431 27205 ft 449 kts 50°
2026-04-14 12:52 42.42680 47.03464 26514 ft 447 kts 41°
2026-04-14 12:52 42.44334 47.05221 25965 ft 448 kts 34°
2026-04-14 12:53 42.47014 47.07321 25362 ft 443 kts 26°
2026-04-14 12:53 42.49871 47.08819 24741 ft 439 kts 18°
2026-04-14 12:53 42.52759 47.10080 24136 ft 434 kts 19°
2026-04-14 12:53 42.55620 47.11336 23506 ft 430 kts 19°
2026-04-14 12:54 42.58417 47.12566 22843 ft 426 kts 19°
2026-04-14 12:54 42.61221 47.13801 22198 ft 421 kts 18°
2026-04-14 12:54 42.64004 47.15028 21555 ft 417 kts 18°
2026-04-14 12:54 42.66751 47.16237 20947 ft 413 kts 18°
2026-04-14 12:55 42.69468 47.17443 20347 ft 409 kts 18°
2026-04-14 12:55 42.72157 47.18650 19755 ft 405 kts 18°
2026-04-14 12:55 42.74764 47.20074 19193 ft 401 kts 30°
2026-04-14 12:55 42.76968 47.22350 18637 ft 397 kts 46°
2026-04-14 12:56 42.78578 47.25360 18034 ft 392 kts 63°
2026-04-14 12:56 42.79466 47.28833 17389 ft 388 kts 81°
2026-04-14 12:56 42.79584 47.32471 16794 ft 383 kts 97°
2026-04-14 12:56 42.78949 47.35911 16241 ft 378 kts 114°
2026-04-14 12:57 42.77606 47.38945 15686 ft 374 kts 131°
2026-04-14 12:57 42.75670 47.41261 15172 ft 370 kts 148°
2026-04-14 12:57 42.73431 47.42980 14671 ft 369 kts 152°
2026-04-14 12:57 42.71188 47.44653 14180 ft 367 kts 152°
2026-04-14 12:58 42.68949 47.46316 13650 ft 366 kts 152°
2026-04-14 12:58 42.66720 47.47966 13094 ft 364 kts 152°
2026-04-14 12:58 42.64504 47.49604 12580 ft 360 kts 152°
2026-04-14 12:58 42.62318 47.51218 12047 ft 356 kts 152°
2026-04-14 12:59 42.60147 47.52822 11529 ft 353 kts 152°
2026-04-14 12:59 42.58006 47.54406 11007 ft 348 kts 151°
2026-04-14 12:59 42.55894 47.55966 10520 ft 344 kts 151°
2026-04-14 12:59 42.53802 47.57511 10021 ft 340 kts 150°
2026-04-14 13:00 42.51737 47.59042 9473 ft 336 kts 150°
2026-04-14 13:00 42.49705 47.60546 9153 ft 327 kts 150°
2026-04-14 13:00 42.47749 47.61991 9017 ft 313 kts 150°
2026-04-14 13:00 42.45878 47.63377 8887 ft 300 kts 148°
2026-04-14 13:01 42.44271 47.65070 8751 ft 287 kts 133°
2026-04-14 13:01 42.43120 47.67196 8618 ft 274 kts 117°
2026-04-14 13:01 42.42247 47.69436 8484 ft 263 kts 117°
2026-04-14 13:01 42.41403 47.71582 8350 ft 253 kts 117°
2026-04-14 13:02 42.40694 47.73704 8226 ft 243 kts 106°
2026-04-14 13:02 42.40360 47.75900 8095 ft 237 kts 96°
2026-04-14 13:02 42.40139 47.78100 7958 ft 235 kts 96°
2026-04-14 13:02 42.39913 47.80290 7735 ft 235 kts 97°
2026-04-14 13:03 42.39706 47.82474 7477 ft 232 kts 90°
2026-04-14 13:03 42.39980 47.84573 7226 ft 225 kts 64°
2026-04-14 13:03 42.40892 47.86242 6964 ft 220 kts 38°
2026-04-14 13:03 42.42235 47.87209 6662 ft 220 kts 20°
2026-04-14 13:04 42.43673 47.87934 6357 ft 221 kts 21°
2026-04-14 13:04 42.45109 47.88663 6036 ft 220 kts 20°
2026-04-14 13:04 42.46539 47.89392 5719 ft 219 kts 20°
2026-04-14 13:04 42.47940 47.90106 5440 ft 217 kts 19°
2026-04-14 13:05 42.49386 47.90771 5176 ft 216 kts 10°
2026-04-14 13:05 42.50853 47.90802 4926 ft 215 kts 348°
2026-04-14 13:05 42.52239 47.90079 4656 ft 214 kts 329°
2026-04-14 13:05 42.53506 47.89015 4462 ft 214 kts 328°
2026-04-14 13:06 42.54772 47.87950 4377 ft 215 kts 329°
2026-04-14 13:06 42.56042 47.86884 4297 ft 214 kts 329°
2026-04-14 13:06 42.57309 47.85819 4217 ft 214 kts 329°
2026-04-14 13:06 42.58576 47.84755 4134 ft 214 kts 328°
2026-04-14 13:07 42.59824 47.83704 4055 ft 208 kts 328°
2026-04-14 13:07 42.61035 47.82687 3974 ft 201 kts 328°
2026-04-14 13:07 42.62203 47.81704 3901 ft 194 kts 328°
2026-04-14 13:07 42.63327 47.80758 3825 ft 182 kts 327°
2026-04-14 13:08 42.64340 47.79905 3747 ft 164 kts 327°
2026-04-14 13:08 42.65279 47.79113 3594 ft 155 kts 327°
2026-04-14 13:08 42.66185 47.78350 3403 ft 151 kts 327°
2026-04-14 13:08 42.67065 47.77607 3178 ft 148 kts 327°
2026-04-14 13:09 42.67935 47.76873 2974 ft 147 kts 325°
2026-04-14 13:09 42.68810 47.76134 2761 ft 149 kts 327°
2026-04-14 13:09 42.69678 47.75401 2570 ft 146 kts 326°
2026-04-14 13:09 42.70544 47.74670 2354 ft 147 kts 326°
2026-04-14 13:10 42.71421 47.73930 2150 ft 148 kts 325°
2026-04-14 13:10 42.72290 47.73195 1969 ft 146 kts 325°
2026-04-14 13:10 42.73145 47.72473 1775 ft 143 kts 325°
2026-04-14 13:10 42.73983 47.71764 1587 ft 140 kts 326°
2026-04-14 13:11 42.74802 47.71072 1405 ft 137 kts 325°
2026-04-14 13:11 42.75603 47.70395 1211 ft 134 kts 328°
2026-04-14 13:11 42.76392 47.69740 996 ft 137 kts 325°
2026-04-14 13:11 42.77195 47.69050 827 ft 136 kts 326°
2026-04-14 13:12 42.78001 47.68369 644 ft 136 kts 327°
2026-04-14 13:12 42.78801 47.67687 487 ft 135 kts 326°
2026-04-14 13:12 42.79595 47.67006 316 ft 135 kts 327°
2026-04-14 13:12 42.80395 47.66332 131 ft 135 kts 326°
2026-04-14 13:13 42.81176 47.65665 41 ft 123 kts 327°
2026-04-14 13:13 42.81768 47.65165 34 ft 63 kts 328°
2026-04-14 13:13 42.81911 47.65102 35 ft 13 kts 43°
2026-04-14 13:13 42.81942 47.65167 36 ft 6 kts 59°
2026-04-14 13:14 42.81961 47.65209 37 ft 5 kts 59°
2026-04-14 13:14 42.81976 47.65244 37 ft 4 kts 59°
2026-04-14 13:14 42.82003 47.65302 37 ft 10 kts 57°
2026-04-14 13:14 42.82046 47.65361 37 ft 8 kts 31°
2026-04-14 13:15 42.82087 47.65409 37 ft 7 kts 55°
2026-04-14 13:15 42.82111 47.65462 37 ft 0 kts 58°